Temp
3 2 3 2 2 1 1 1 1 1 1 1 1 0 -0 -1 -1 -1 -1 -0 0 1 1 1 1 1 2 2 2 3 4 6 6 8 11 13 15 15 16 17 17 16 17
1 1 1 1 1 1 1 1 1 1 1 0 -0 -1 -1 -1 -1 -2 -1 -1 -1 -1 -1 -1 -0 0 1 1 1 1 2 2 4 4 6 9 14 15 15 16 16 16 17
1 -0 -1 0 1 1 1 1 1 0 0 -0 -1 -1 -1 -2 -2 -1 -1 -1 -1 -1 -1 -1 -1 -1 -1 -0 -0 -0 -0 0 2 3 3 6 10 6 13 14 14 14 15
1 0 -1 -1 1 1 1 0 0 -0 -1 -1 -1 -2 -3 -3 -3 -3 -3 -2 -2 -2 -2 -1 -2 -1 -1 -1 -1 -1 -1 -1 -1 2 3 3 4 5 6 11 12 13 14
0 -1 -2 -0 1 1 1 0 -0 -1 -1 -1 -2 -2 -3 -4 -4 -4 -3 -3 -2 -2 -2 -2 -2 -2 -2 -2 -2 -2 -2 -1 -1 -1 -0 2 3 4 5 6 8 12 12
-1 -1 -1 -1 -0 -0 -0 -0 -0 -1 -1 -2 -2 -2 -3 -4 -4 -4 -4 -4 -3 -3 -3 -3 -3 -3 -3 -3 -3 -3 -3 -2 -2 -2 -1 -1 0 3 4 4 5 7 8
-3 -2 -3 -3 -2 -1 -1 -1 -1 -1 -2 -2 -2 -3 -4 -4 -5 -5 -5 -5 -4 -4 -4 -4 -3 -3 -3 -3 -3 -3 -3 -3 -3 -3 -2 -2 -1 -0 1 2 3 5 7
-2 -2 -2 -3 -2 -1 -1 -1 -1 -2 -2 -2 -3 -4 -4 -5 -5 -5 -6 -5 -5 -5 -4 -4 -4 -4 -4 -4 -4 -4 -4 -4 -4 -4 -3 -3 -2 -1 -0 1 3 3 5
-1 -1 -2 -1 -1 -1 -1 -1 -1 -2 -3 -3 -3 -4 -4 -5 -6 -6 -6 -5 -5 -5 -6 -5 -5 -5 -5 -5 -5 -5 -4 -5 -4 -4 -4 -4 -4 -3 -2 -0 1 3 3
-2 -2 -2 -1 -0 0 0 -1 -1 -2 -2 -3 -3 -4 -5 -5 -6 -6 -6 -6 -6 -5 -5 -5 -5 -5 -5 -5 -6 -6 -6 -5 -5 -5 -5 -4 -4 -3 -3 -2 -0 1 3
-3 -3 -3 -1 -0 -0 -1 -2 -2 -2 -3 -3 -4 -4 -5 -6 -6 -6 -6 -6 -6 -6 -5 -6 -6 -7 -7 -6 -6 -6 -6 -6 -6 -5 -5 -4 -4 -4 -3 -3 -2 0 1
-4 -4 -2 -2 -1 -1 -1 -2 -2 -3 -3 -3 -4 -4 -5 -6 -6 -6 -6 -6 -6 -6 -6 -6 -6 -7 -7 -7 -6 -6 -5 -5 -5 -5 -5 -5 -4 -4 -4 -3 -2 -1 1
-4 -4 -5 -3 -1 -1 -1 -2 -2 -2 -3 -4 -4 -5 -5 -6 -6 -6 -6 -6 -6 -6 -6 -6 -6 -6 -6 -7 -6 -6 -5 -5 -5 -5 -5 -4 -4 -4 -4 -3 -3 -2 -1
-4 -4 -5 -4 -2 -2 -2 -3 -3 -3 -3 -4 -4 -5 -5 -6 -6 -6 -7 -7 -7 -6 -6 -6 -6 -6 -7 -6 -6 -5 -5 -4 -4 -4 -4 -4 -4 -4 -3 -3 -3 -3 -1
-1 -3 -4 -5 -2 -2 -3 -3 -3 -3 -3 -4 -4 -4 -5 -6 -7 -7 -7 -7 -6 -6 -6 -6 -6 -6 -7 -6 -6 -5 -5 -4 -4 -4 -3 -3 -3 -3 -3 -3 -3 -2 -2
-1 -1 -1 -1 -1 -1 -2 -2 -3 -3 -4 -4 -4 -5 -6 -6 -7 -7 -7 -7 -6 -6 -6 -7 -7 -7 -8 -6 -5 -4 -4 -4 -4 -4 -3 -3 -3 -2 -2 -2 -2 -2 -2
-2 -1 -2 -2 -1 -1 -1 -2 -2 -3 -4 -4 -4 -5 -6 -6 -7 -7 -7 -7 -6 -7 -7 -7 -7 -7 -7 -7 -6 -5 -4 -4 -4 -4 -4 -4 -3 -2 -2 -2 -2 -1 -1
-1 -2 -2 -1 -1 -1 -1 -1 -2 -3 -4 -4 -5 -5 -6 -6 -7 -7 -7 -7 -7 -7 -7 -7 -7 -7 -7 -8 -6 -5 -5 -5 -5 -4 -4 -3 -3 -3 -2 -2 -2 -1 -1
-3 -3 -1 -1 -2 -1 -1 -2 -3 -4 -4 -5 -5 -5 -6 -6 -7 -7 -7 -7 -7 -7 -7 -7 -7 -7 -8 -8 -6 -5 -5 -5 -4 -4 -4 -4 -4 -4 -3 -3 -2 -2 -1
-2 -2 -1 -2 -2 -1 -2 -3 -4 -5 -5 -4 -4 -5 -6 -6 -7 -7 -7 -7 -7 -7 -7 -7 -7 -8 -8 -8 -6 -5 -5 -5 -5 -5 -5 -5 -5 -4 -4 -2 -1 -1 -1
-3 -3 -2 -3 -2 -2 -3 -4 -4 -5 -3 -3 -4 -5 -6 -6 -7 -7 -7 -7 -7 -7 -7 -7 -7 -8 -8 -8 -7 -5 -5 -5 -5 -6 -6 -7 -6 -4 -3 -2 0 -1 -1
-4 -4 -4 -4 -2 -2 -4 -4 -5 -3 -3 -4 -5 -5 -6 -7 -7 -7 -7 -7 -7 -7 -7 -7 -8 -8 -8 -8 -7 -6 -5 -5 -6 -7 -7 -7 -5 -3 -1 -1 0 -0 -0
-5 -5 -5 -5 -4 -3 -4 -5 -4 -3 -4 -4 -5 -6 -6 -7 -7 -7 -7 -7 -7 -7 -7 -8 -8 -9 -9 -8 -7 -7 -6 -7 -7 -8 -8 -7 -6 -5 0 1 1 0 -0
-5 -6 -6 -6 -5 -4 -4 -4 -4 -4 -4 -5 -5 -6 -7 -7 -7 -7 -7 -7 -7 -7 -7 -8 -8 -9 -9 -8 -8 -8 -8 -8 -8 -9 -9 -9 -8 -7 -7 -6 -2 0 0
-5 -5 -6 -6 -5 -5 -5 -5 -4 -5 -5 -5 -6 -7 -7 -7 -8 -8 -7 -8 -7 -7 -7 -7 -8 -8 -9 -8 -8 -8 -8 -8 -8 -10 -10 -10 -9 -9 -8 -8 -7 -6 -3
-6 -6 -6 -7 -6 -6 -6 -6 -5 -5 -5 -6 -7 -7 -7 -8 -8 -8 -8 -8 -8 -8 -8 -8 -8 -8 -8 -8 -9 -9 -9 -9 -10 -11 -11 -11 -10 -10 -9 -9 -8 -8 -8
Height
788 793 798 802 806 809 811 813 815 815 816 817 816 816 816 817 816 817 817 818 818 817 815 814 813 812 811 809 808 807 805 805 806 803 800 798 798 799 799 801 802 805 808
788 793 796 800 804 806 810 812 813 815 816 815 815 816 816 816 816 817 818 817 817 816 815 814 814 813 811 811 809 807 806 806 808 809 808 802 795 793 794 795 796 798 803
783 789 794 797 801 805 808 811 813 815 815 816 816 816 816 816 817 817 817 816 815 814 814 814 814 813 812 810 809 810 810 810 810 811 814 809 802 801 792 790 792 793 796
777 783 791 796 799 803 807 811 813 815 816 817 816 816 817 818 818 817 816 815 815 815 814 812 811 811 810 810 810 812 812 813 812 811 813 813 814 811 802 791 790 791 792
772 779 786 791 797 802 805 809 811 813 814 815 815 816 816 817 816 816 815 815 814 813 812 811 810 810 811 810 811 811 811 812 813 815 813 812 812 813 814 806 795 790 790
770 776 783 790 796 802 805 807 809 811 812 813 813 813 813 813 813 813 812 811 810 809 809 809 809 809 809 809 808 809 809 810 811 813 813 813 815 812 811 810 804 799 789
771 776 782 789 795 799 802 805 807 809 811 812 812 811 811 811 811 811 811 809 808 807 808 807 807 806 806 805 806 805 806 805 806 809 809 810 809 811 810 809 807 803 792
773 777 782 787 792 797 801 804 806 807 809 810 811 810 810 810 811 811 811 810 808 806 806 805 804 805 803 801 801 801 801 801 801 803 803 804 803 805 806 806 807 801 794
775 779 784 788 792 795 798 801 803 805 807 809 808 808 808 809 810 809 809 808 806 804 803 802 802 801 800 799 798 797 795 797 796 797 797 797 797 798 799 800 801 800 794
781 782 784 787 790 793 795 798 801 802 804 805 805 805 806 806 807 806 806 804 802 801 801 799 798 797 796 795 794 792 792 791 790 790 790 789 789 790 792 793 793 793 790
786 785 785 786 788 790 792 795 797 798 800 801 802 802 803 804 804 803 803 801 800 799 797 795 794 792 792 789 791 788 787 786 785 784 783 783 784 783 783 785 785 784 783
785 785 785 786 786 787 788 790 792 794 797 798 799 800 801 802 802 801 800 798 796 796 793 792 791 789 787 785 784 783 782 781 779 777 776 776 777 774 775 776 775 774 773
782 781 782 782 783 784 785 786 789 791 794 795 796 798 799 799 798 797 797 796 794 792 791 789 786 784 781 780 779 778 776 774 772 771 769 768 769 765 765 764 763 764 762
783 782 781 780 780 780 781 783 785 788 790 791 793 795 796 796 796 795 794 793 792 789 787 784 781 779 778 775 772 770 768 767 764 761 757 756 757 753 753 753 751 752 752
783 782 781 779 778 777 776 777 779 783 785 788 790 791 793 794 793 792 791 790 788 785 783 780 777 774 771 768 765 763 760 755 751 750 747 743 741 738 740 742 737 738 738
784 781 780 779 777 775 773 773 775 777 781 784 786 789 790 790 790 789 788 786 783 781 779 775 771 767 764 761 759 756 751 747 742 737 733 728 726 723 721 723 722 723 723
784 781 779 777 774 772 770 769 771 775 777 780 782 784 786 786 786 785 783 781 779 777 774 770 766 762 757 753 751 748 743 737 731 725 718 711 705 703 700 699 696 697 702
781 779 777 775 773 770 768 767 768 771 774 776 778 780 781 781 782 781 780 779 777 774 770 765 761 755 749 747 745 740 733 726 718 710 703 694 685 682 680 677 673 671 673
781 777 774 771 769 768 766 765 765 767 770 771 774 776 777 777 778 777 776 775 773 770 765 760 755 748 743 741 738 732 724 713 705 695 685 677 665 659 658 653 647 647 649
775 772 768 766 765 763 762 761 761 762 764 766 769 771 773 774 774 774 773 771 769 766 760 754 749 745 741 736 731 723 712 703 689 677 667 659 648 639 634 627 619 620 624
769 766 763 760 759 758 757 756 756 756 758 761 764 767 769 770 770 770 770 768 765 761 756 751 747 744 738 729 723 714 706 694 678 667 655 643 631 616 604 597 587 592 610
763 760 757 754 752 751 751 750 750 751 754 757 759 762 764 766 766 766 766 764 761 757 753 749 745 741 732 725 716 708 701 689 676 664 647 630 611 573 555 569 575 588 601
758 754 750 747 745 744 744 744 743 747 749 752 755 758 760 762 762 762 761 761 759 756 752 748 745 737 728 721 712 704 695 684 673 661 646 628 608 578 558 561 573 584 593
753 748 744 741 739 739 739 738 739 742 744 747 750 753 756 758 759 759 759 759 758 754 751 747 741 735 728 721 712 704 694 682 673 658 645 635 617 606 583 576 577 582 588
748 743 739 736 734 734 734 734 735 737 739 743 747 750 752 755 756 756 756 756 756 754 750 746 742 736 731 724 717 709 700 689 681 665 652 639 624 615 605 597 591 586 585
743 739 736 733 730 730 730 729 731 733 736 740 744 747 749 752 753 754 754 754 754 752 751 748 743 739 735 728 719 713 705 696 686 673 662 653 644 636 626 619 609 600 594
Wind_Speed
12 22 25 23 20 16 14 10 6 4 4 4 4 3 7 5 6 5 5 5 6 7 7 9 9 10 11 12 13 13 12 8 12 13 9 14 19 21 24 25 27 30 33
10 15 24 25 23 20 15 11 6 3 3 5 6 5 6 4 6 6 6 6 7 7 7 8 8 9 10 10 12 13 12 8 11 7 5 4 5 13 21 28 30 33 34
15 13 18 25 24 21 17 13 8 4 2 3 4 4 4 4 3 6 7 8 8 8 8 8 8 8 9 10 11 11 9 9 7 6 3 3 2 7 4 19 27 29 33
13 13 17 23 27 23 18 14 10 7 4 1 2 3 3 3 4 9 10 10 9 8 8 8 8 9 9 9 9 6 7 8 10 11 2 6 6 3 5 7 4 20 31
15 15 19 29 28 24 20 15 11 8 5 2 1 2 3 4 7 8 10 10 9 9 9 8 8 8 9 9 10 10 9 8 10 9 8 8 11 11 6 4 8 10 9
13 13 19 25 25 22 18 15 12 9 7 4 2 3 4 6 8 10 12 13 13 13 11 11 11 10 11 11 12 12 11 12 13 14 14 12 7 3 6 5 10 14 24
9 11 12 18 23 22 20 16 14 12 9 6 4 4 5 6 8 10 13 15 16 16 15 15 14 13 14 14 14 15 15 15 16 18 18 16 17 18 18 17 13 8 12
7 9 11 18 24 23 21 19 17 14 11 8 5 5 6 7 8 9 11 14 15 16 16 15 15 17 17 16 16 18 20 17 17 20 22 22 20 20 19 18 14 8 11
8 9 12 19 23 23 23 21 18 15 13 9 7 6 6 8 9 10 12 14 14 16 15 17 18 19 18 18 20 22 22 22 23 23 24 23 21 22 23 24 23 18 6
4 4 8 15 19 21 21 21 19 16 12 10 8 6 7 8 10 11 12 13 14 16 18 18 19 20 20 20 19 20 22 23 25 23 24 26 24 23 24 26 27 29 25
3 4 7 14 16 17 18 19 18 17 14 11 8 7 7 8 10 12 12 13 15 16 18 18 19 17 18 18 19 20 22 24 26 26 26 27 26 27 26 26 29 30 31
5 5 9 11 13 14 16 18 17 16 14 11 9 8 8 9 11 11 13 14 16 16 18 18 19 18 18 21 21 23 23 25 26 28 30 31 29 31 31 30 31 33 35
4 3 4 6 11 15 17 18 18 17 14 13 11 9 8 10 11 11 13 14 16 17 17 18 20 21 22 22 22 23 26 28 31 33 34 35 32 35 33 33 33 34 36
6 4 4 9 15 17 17 19 19 18 17 15 13 11 9 9 10 11 12 14 15 18 19 19 21 23 21 22 25 26 27 30 33 34 37 40 39 41 39 37 39 37 37
5 4 4 5 10 13 16 18 20 19 19 17 15 12 8 8 9 10 12 13 15 18 19 21 22 23 23 22 22 25 29 32 34 35 38 41 43 47 47 41 41 39 40
7 5 5 7 11 14 16 18 21 21 21 20 17 11 9 8 8 9 11 13 16 18 20 22 22 23 20 21 25 29 32 33 35 37 38 42 45 48 51 54 56 48 41
5 6 5 9 16 17 15 16 19 19 22 21 17 13 10 9 8 9 12 15 17 19 21 21 21 24 25 22 25 28 32 33 36 38 42 45 46 50 52 52 59 62 62
5 7 11 13 15 15 13 12 14 18 22 22 18 14 10 8 8 9 12 14 16 18 20 22 23 25 27 22 25 29 34 35 38 42 41 46 48 48 50 51 55 59 60
13 17 22 20 17 15 14 12 14 17 20 22 19 15 11 8 7 9 12 12 16 18 20 22 24 27 28 26 26 30 33 34 39 39 41 44 46 48 51 53 56 55 55
23 21 24 19 17 17 14 14 17 19 22 23 20 14 11 9 7 9 9 10 15 19 22 24 25 27 29 28 27 31 32 35 38 39 38 41 45 45 46 50 53 51 51
24 24 25 21 21 19 14 17 19 22 22 19 16 14 12 9 7 7 7 9 15 20 22 25 27 26 28 29 30 32 35 35 39 37 36 36 44 52 55 54 44 52 46
23 23 21 20 25 20 16 20 22 21 20 17 16 14 11 9 8 7 6 9 16 20 23 26 23 25 29 28 32 35 36 39 37 34 37 44 52 66 40 34 37 41 42
22 23 20 19 23 19 16 19 24 18 17 18 17 14 10 8 8 10 9 11 14 18 22 22 18 24 28 29 33 35 38 38 36 35 39 42 47 46 6 28 32 39 37
21 21 18 16 18 17 15 19 20 18 17 20 18 14 10 8 8 7 8 8 11 16 19 21 17 21 25 28 33 32 35 37 36 38 39 38 36 37 37 27 6 30 33
23 19 15 14 17 15 14 14 14 16 18 20 17 13 9 8 7 6 6 6 8 12 15 20 20 20 22 29 30 28 31 33 33 31 34 38 41 38 36 31 27 23 6
18 17 16 14 16 14 14 13 12 16 19 18 15 11 9 8 6 4 3 2 5 7 9 15 16 17 20 24 26 25 25 31 29 28 31 32 33 32 32 28 24 26 25
Wind_Direction
171 174 176 171 165 166 165 160 147 112 69 49 41 39 25 47 37 34 23 9 4 2 7 0 1 1 1 4 0 353 352 354 344 331 304 285 264 255 248 245 245 243 238
161 162 170 173 175 170 170 166 159 134 72 45 35 26 1 5 8 11 359 357 356 359 0 356 357 354 355 357 2 6 359 351 6 357 308 323 282 251 250 241 240 242 242
170 168 167 175 176 175 175 173 171 161 116 43 28 12 5 355 349 341 347 352 349 345 345 348 349 351 349 352 357 1 8 358 352 24 337 334 289 322 279 238 235 234 234
172 166 169 174 182 181 178 179 178 175 170 127 21 19 10 344 326 330 334 340 343 345 343 344 343 341 340 342 343 339 328 321 313 330 346 276 288 339 327 320 324 239 232
168 167 174 183 185 180 182 183 184 186 190 205 327 345 334 316 316 323 326 332 338 343 348 344 336 333 325 321 318 317 314 302 291 283 299 317 292 258 257 299 324 332 250
164 167 169 179 179 181 184 189 196 201 208 226 283 317 319 320 323 326 329 333 336 339 342 336 328 321 317 314 311 307 301 293 285 278 270 251 265 310 247 262 286 283 289
150 145 147 162 178 182 190 198 205 210 215 229 266 296 307 311 314 320 322 326 330 332 332 329 322 317 314 308 304 300 297 292 283 278 267 256 248 252 265 275 278 275 298
131 147 155 165 182 190 197 203 207 209 218 228 253 276 290 296 298 306 309 313 317 320 322 323 320 314 312 309 305 300 295 291 283 277 272 262 255 249 248 250 263 281 259
127 134 147 175 189 199 205 209 210 213 218 226 243 263 277 288 293 299 304 308 313 319 316 312 308 309 306 301 298 293 292 289 284 275 270 263 258 252 249 245 244 244 265
84 126 164 185 200 211 216 215 217 219 219 227 242 256 268 283 292 299 305 310 313 314 312 312 309 302 299 300 299 287 283 281 281 274 271 270 263 259 253 248 243 241 248
265 219 211 209 213 218 218 218 217 219 219 225 237 253 268 282 291 297 304 309 309 313 311 309 304 297 292 295 284 279 278 274 272 270 266 264 261 258 253 250 246 242 236
213 227 223 216 220 225 224 223 222 223 224 227 239 251 262 276 287 295 303 307 309 311 312 305 298 290 284 285 281 274 271 269 268 268 266 262 261 257 253 250 248 245 243
292 279 286 263 251 246 240 234 230 229 227 228 240 249 262 275 288 295 300 305 307 309 308 302 297 296 293 284 273 270 269 267 265 263 261 262 259 258 254 247 248 247 246
298 280 282 267 269 264 252 239 229 228 224 228 238 248 263 279 288 294 302 305 306 307 307 305 304 298 282 278 277 276 273 272 268 266 262 257 254 254 252 248 246 244 246
332 318 301 292 285 267 256 241 235 228 222 226 234 244 257 273 287 295 302 304 305 309 310 309 306 301 292 283 281 277 275 274 274 270 265 262 255 250 251 248 246 242 240
334 323 315 320 323 309 276 250 234 224 220 224 232 235 241 267 285 295 305 303 309 314 316 314 312 308 296 284 286 285 284 281 277 276 273 269 264 260 255 248 247 242 238
284 311 300 309 321 316 304 257 238 224 219 223 227 228 237 270 290 300 305 305 315 321 324 321 321 316 311 300 292 289 290 287 284 280 277 270 264 262 257 250 243 239 237
307 306 297 297 309 312 304 277 244 223 220 223 226 227 235 264 287 298 299 309 319 326 329 326 328 326 324 313 302 298 298 293 289 282 279 276 274 267 261 251 242 239 234
288 288 299 287 290 296 293 262 232 220 220 226 227 227 233 250 272 288 301 318 327 334 337 335 335 337 330 321 311 308 305 300 293 294 289 281 276 272 266 256 246 238 232
289 283 293 283 278 287 286 250 229 217 220 228 230 230 227 239 255 280 297 326 339 340 342 340 344 344 330 329 322 318 317 309 309 308 298 293 285 280 279 260 251 229 225
290 284 283 273 277 283 274 252 237 224 230 232 228 223 220 231 241 271 281 323 340 343 348 345 347 340 337 329 331 330 327 324 321 314 310 308 303 294 282 274 250 218 216
297 285 278 273 280 278 262 254 242 243 240 226 218 213 216 228 234 251 273 319 336 344 346 344 338 339 341 339 338 335 336 336 330 323 326 325 320 312 265 244 218 210 207
296 288 278 273 278 269 252 247 250 244 238 217 212 210 213 226 238 248 272 311 336 343 341 340 333 339 340 340 343 341 345 345 342 342 346 343 346 359 245 196 207 205 206
296 286 277 268 268 270 261 255 255 245 227 213 208 203 205 220 237 253 273 292 332 337 343 348 347 345 343 347 348 348 347 352 350 354 355 357 6 8 27 38 202 207 207
299 286 279 268 272 283 269 258 251 236 213 208 201 192 196 208 234 251 270 290 331 331 340 353 356 354 349 355 350 353 357 1 357 359 6 8 12 10 13 21 29 44 127
308 310 308 297 290 286 273 260 243 221 202 195 190 184 194 200 217 234 284 310 340 347 355 356 360 5 359 2 360 4 9 11 12 15 17 9 11 9 10 12 21 35 37